Theta_e
336 335 335 333 330 330 326 322 329 335 336 338 338 338 339 339 339 339 339 338 336 333 325 317 311 309 309 311 315 318 319 323 326 326 326 323 318 317 318 322 324 324 320 317 318 318 318 317 311 309 310 309 308 308 308 308 309 309 310 309 310 310 311 311 312 313 314 315 320 324 323 323 322 322 324 322 321 321 322 324 324 325 324 323 322
335 335 335 334 331 331 327 321 326 335 337 338 339 338 339 339 339 339 339 338 337 333 323 315 311 310 309 313 314 315 321 325 325 324 322 320 317 317 320 323 323 321 319 319 320 321 323 319 312 310 309 309 309 309 308 308 309 310 310 310 310 310 311 311 311 312 313 314 316 319 322 324 322 319 322 323 321 321 323 325 325 326 326 324 323
334 335 336 335 333 331 328 323 321 330 337 339 339 339 339 339 339 338 338 337 336 330 321 315 312 312 311 313 315 318 326 325 321 319 317 315 314 315 320 324 322 321 321 321 322 322 321 316 311 311 310 309 309 309 309 309 309 310 310 310 310 311 311 311 311 311 312 312 315 321 323 323 322 319 320 320 319 322 323 324 325 325 326 326 325
334 335 337 335 333 332 329 325 320 323 332 338 339 339 339 339 338 337 337 337 335 329 319 313 312 314 315 314 316 321 323 319 316 314 314 313 312 314 321 323 323 322 323 321 320 319 316 313 312 311 310 310 309 309 309 309 310 310 310 310 310 311 311 311 311 312 313 312 317 324 325 324 324 322 322 321 320 323 324 324 324 324 325 325 325
335 335 337 336 334 333 330 327 323 320 323 331 336 339 339 338 338 337 336 335 332 323 313 312 315 317 317 315 317 321 319 315 314 313 313 315 314 314 318 321 322 321 322 320 317 318 317 315 313 311 311 310 310 310 311 310 310 310 310 310 311 311 311 312 312 313 314 315 321 324 325 325 325 323 323 323 322 324 325 325 324 324 324 324 324
335 334 336 336 335 334 332 329 325 322 319 319 326 334 337 337 337 335 333 330 325 315 310 315 319 318 318 316 316 317 315 314 316 316 315 315 314 315 318 319 320 320 321 320 316 316 316 315 313 312 312 311 311 311 311 311 311 311 311 311 311 311 312 312 313 314 315 321 324 325 326 325 324 323 323 324 323 324 326 325 324 324 323 324 324
336 336 337 337 336 334 333 331 327 324 321 317 317 324 330 333 332 328 324 321 316 311 314 322 323 322 321 317 315 318 318 317 317 317 317 316 315 317 318 319 321 321 322 320 316 315 313 313 312 312 311 311 312 311 311 311 311 311 311 311 311 311 312 312 313 313 317 324 326 325 326 326 324 322 322 325 324 324 326 325 324 324 323 323 324
335 336 337 337 336 335 333 332 330 327 322 319 315 315 320 323 323 319 315 314 311 311 321 329 328 325 323 318 315 321 324 324 321 315 315 317 316 317 317 319 320 320 320 318 313 313 312 312 312 312 311 311 311 311 311 311 311 311 311 311 311 311 311 312 312 313 319 325 326 326 326 326 326 323 322 325 325 324 326 325 324 323 323 323 324
334 335 336 337 335 334 334 332 331 329 324 320 315 313 313 314 314 312 311 310 310 313 323 329 329 328 327 322 318 321 324 324 321 315 316 317 316 316 316 317 317 316 316 314 312 312 312 312 311 311 311 311 311 311 311 311 311 311 311 311 311 311 311 311 311 315 321 325 325 326 326 326 327 325 323 323 324 324 325 325 324 323 323 323 323
333 334 336 336 335 333 333 333 331 329 324 320 316 314 313 312 311 311 311 310 311 314 321 325 327 328 328 327 323 320 320 318 316 315 316 315 314 314 314 315 314 314 313 312 312 313 312 311 311 311 311 311 311 311 311 311 311 311 311 311 311 311 311 312 312 315 321 324 324 325 325 326 327 326 323 323 324 323 324 324 324 323 323 323 323
333 335 336 336 334 332 332 332 330 327 324 320 315 314 313 311 312 311 311 311 312 315 319 322 325 327 328 329 327 322 319 317 314 313 315 314 314 314 313 313 313 313 313 313 313 313 313 312 311 311 311 311 311 311 311 311 311 311 311 311 311 311 312 312 312 313 318 322 323 324 325 327 326 326 323 321 324 324 323 324 324 323 323 323 323
335 335 336 336 333 332 332 331 329 326 324 320 315 312 311 311 312 311 313 315 316 318 318 320 326 329 328 328 328 326 322 318 313 313 315 315 314 314 314 313 313 312 312 312 312 312 313 312 311 311 311 311 311 311 311 311 311 311 311 311 311 312 312 311 312 312 315 319 323 324 324 326 325 325 322 319 323 323 323 324 324 323 323 323 323
333 334 335 336 333 332 332 331 329 326 323 321 315 311 310 310 311 310 315 321 322 322 319 322 327 329 329 329 329 328 325 319 314 313 314 314 313 313 314 313 312 312 311 311 311 311 311 311 311 311 311 311 311 311 311 311 311 311 311 311 311 311 311 311 312 312 314 317 321 323 324 325 324 324 320 319 323 322 323 324 323 323 322 323 323
329 332 335 335 334 333 331 331 329 326 323 321 316 311 310 309 311 312 316 323 325 324 322 324 327 328 329 329 329 328 325 319 317 317 315 314 313 313 313 312 312 312 311 311 311 311 311 311 311 311 311 311 311 311 311 311 311 311 311 311 311 311 311 311 311 312 313 313 316 321 324 324 323 323 320 320 324 322 324 324 323 323 322 322 322
325 327 332 334 335 333 332 331 330 327 322 321 318 312 310 309 310 311 315 322 324 324 323 325 325 325 327 328 327 326 324 320 319 320 319 318 315 315 313 312 313 312 311 311 311 311 311 311 311 311 311 311 311 311 311 311 311 311 311 311 311 311 311 312 311 312 313 312 313 318 322 323 322 324 320 320 323 322 324 324 323 323 322 322 322
324 325 328 331 333 334 333 332 331 328 323 321 320 315 311 310 310 310 313 317 319 321 320 321 320 319 323 325 325 324 322 321 321 320 320 320 318 318 315 312 312 312 311 311 311 311 311 311 311 311 311 311 311 311 311 311 311 311 311 311 311 311 311 312 313 313 313 313 313 315 322 323 323 324 320 319 322 322 323 323 322 323 322 323 322
323 324 327 329 331 333 333 333 331 329 326 322 321 317 312 310 309 309 312 312 312 315 314 316 316 314 318 320 323 324 324 323 323 320 319 319 316 317 315 312 312 311 312 311 311 311 311 311 311 311 311 311 311 311 311 311 311 311 311 311 311 312 311 312 316 316 313 313 313 316 322 323 322 325 322 319 322 322 323 323 322 321 322 322 322
322 322 327 330 332 333 332 333 332 330 328 323 321 318 313 310 309 308 310 310 309 311 311 313 314 314 314 316 321 323 324 326 325 321 319 317 314 314 314 312 312 312 312 311 311 311 311 311 311 311 311 311 311 311 311 311 311 311 312 312 312 312 311 314 318 317 315 314 314 319 323 322 321 325 323 319 322 322 322 322 321 322 321 321 322
322 321 327 331 332 333 331 331 331 331 329 326 323 319 315 311 310 309 308 310 309 310 311 311 313 313 313 314 317 319 322 324 323 321 318 315 314 314 312 312 312 312 312 311 311 311 311 311 311 311 311 311 311 311 311 311 312 312 312 312 313 312 313 317 316 317 319 316 316 321 322 321 322 324 323 320 321 321 320 322 321 322 322 320 320
322 321 326 331 332 333 332 330 330 330 330 328 325 320 317 314 311 309 308 309 309 310 310 310 311 311 311 312 314 315 319 319 319 319 317 315 314 313 312 312 312 312 312 311 311 311 311 311 311 311 311 311 311 311 311 312 312 312 313 313 314 315 317 318 316 317 319 316 316 320 321 322 323 323 323 320 319 320 321 323 321 320 321 318 317
324 323 326 330 331 333 332 329 327 326 327 327 325 321 319 316 313 311 309 309 309 309 310 310 310 309 309 309 311 313 316 317 318 317 316 315 314 313 312 312 312 312 311 311 311 311 311 311 311 311 311 312 311 312 312 312 312 313 314 313 315 318 318 317 317 318 318 316 316 319 319 321 322 322 323 320 318 321 322 323 323 321 319 317 314
328 327 327 329 330 331 330 327 324 322 322 323 323 321 319 317 315 312 309 309 308 308 309 309 309 309 309 308 308 310 313 315 314 314 314 314 313 312 311 312 312 312 311 311 311 311 311 311 311 312 311 312 312 312 312 312 313 314 314 314 317 318 318 317 318 318 316 315 317 317 317 320 322 323 324 321 318 320 321 322 324 321 319 316 311
331 330 328 329 330 330 329 326 323 320 318 318 319 319 319 317 317 315 311 309 308 308 308 308 308 308 308 308 308 308 309 310 310 311 311 312 312 311 311 311 311 312 311 311 311 311 311 311 311 311 311 312 312 312 313 313 315 316 316 318 319 318 318 318 318 318 315 314 316 315 316 320 322 323 324 322 319 319 319 321 321 319 318 314 307
331 331 330 329 329 328 326 324 322 320 318 316 315 316 317 317 317 315 313 310 308 308 308 308 308 308 308 308 309 308 308 308 309 309 310 311 311 311 311 311 311 311 311 311 311 311 311 311 311 311 311 311 311 312 313 315 317 319 319 319 320 318 318 319 318 318 316 314 314 315 318 322 323 324 325 324 321 319 318 318 319 317 314 309 304
329 332 331 330 328 328 325 322 321 320 320 317 314 314 314 315 315 314 313 311 309 308 308 308 308 309 308 308 308 308 309 308 308 309 309 309 310 311 311 311 311 311 311 311 311 311 311 311 311 311 311 311 311 312 313 316 319 320 320 319 319 319 319 319 318 318 318 317 315 315 320 322 323 324 325 325 321 319 318 317 316 314 310 305 302
326 329 330 330 329 328 326 323 321 320 320 319 316 314 313 314 314 313 312 311 309 308 308 308 308 308 308 308 308 308 309 308 308 308 308 309 309 310 310 311 311 311 311 311 311 311 311 311 311 311 311 311 310 311 313 316 319 319 319 318 319 320 319 319 318 318 319 318 315 315 319 321 323 324 324 324 321 318 318 316 313 310 306 302 300
321 323 327 329 329 329 328 326 324 322 321 321 319 316 313 313 313 313 312 311 310 309 309 308 308 308 308 308 308 308 308 308 308 308 309 308 309 309 310 310 310 311 311 311 311 310 311 310 311 311 310 310 310 311 314 317 317 317 319 319 319 319 319 319 319 318 318 318 316 314 316 318 322 323 322 322 320 319 320 318 312 305 302 301 299
317 318 321 325 327 328 329 328 327 325 323 321 321 318 316 314 313 313 312 311 310 309 309 309 308 308 308 308 308 308 308 308 308 308 308 308 308 308 308 309 310 310 310 310 310 310 310 310 310 310 310 310 309 311 314 317 318 318 318 319 320 319 318 319 319 318 317 317 317 315 314 316 319 321 321 321 320 322 323 322 316 305 302 300 299
316 315 317 319 322 326 328 328 328 327 325 323 322 320 318 316 314 313 312 311 311 310 310 309 309 308 308 308 308 308 308 308 308 308 308 308 308 308 308 308 309 309 310 310 310 310 310 310 310 309 309 309 309 312 315 318 320 319 319 320 320 319 318 319 318 317 317 317 317 316 314 314 316 316 319 319 318 322 323 322 318 310 305 301 298
316 315 315 316 318 323 326 327 328 327 326 325 323 322 320 318 316 315 313 312 311 311 311 310 309 309 308 308 308 308 308 308 308 308 308 308 308 308 308 308 308 308 309 309 309 309 309 309 309 309 309 308 309 312 316 319 320 320 320 319 319 319 319 318 318 317 318 318 317 317 315 314 314 313 316 315 315 322 323 322 320 314 307 301 299
317 317 315 315 316 319 323 326 328 327 328 327 325 323 322 320 318 317 315 314 312 311 311 310 309 309 309 308 308 308 308 308 308 308 307 308 307 307 308 307 307 308 308 308 308 309 308 309 309 308 308 308 309 312 317 319 319 321 320 317 317 319 320 319 317 317 319 318 317 318 316 315 314 312 314 312 314 322 323 322 320 316 309 303 300
319 318 318 317 316 316 319 323 327 328 328 327 326 324 324 322 320 319 318 317 315 313 312 311 311 310 309 309 308 308 308 308 308 308 307 307 307 307 308 307 308 307 307 308 308 308 308 308 308 308 308 308 310 314 317 318 318 321 320 317 317 318 319 320 319 318 318 318 317 318 317 315 314 311 311 310 314 321 322 321 319 315 310 305 302
320 320 320 319 318 318 317 319 323 327 328 327 326 325 324 322 321 320 319 319 318 316 314 313 313 311 310 309 309 308 308 308 307 308 307 307 307 307 307 307 308 307 307 307 307 308 307 308 307 307 308 308 312 315 318 318 318 320 319 318 319 319 320 320 320 319 318 317 317 318 318 316 315 312 309 308 313 319 321 320 318 315 312 308 306
321 321 321 320 320 319 318 317 319 323 327 328 327 325 324 323 321 320 320 320 320 318 317 316 315 313 312 311 310 309 308 307 307 308 307 307 307 307 307 307 308 308 307 307 307 308 307 308 307 307 308 310 314 317 318 318 319 321 319 319 321 321 321 319 320 320 318 318 318 318 318 318 317 315 310 307 312 318 320 319 317 315 312 309 308
321 322 322 322 321 320 319 318 317 318 322 325 327 326 325 323 322 321 321 321 320 320 319 318 317 315 314 313 311 310 309 308 307 307 308 308 307 307 307 307 308 308 307 307 307 307 307 307 307 307 309 312 316 317 318 318 320 321 320 321 321 321 321 320 320 319 319 319 319 317 318 318 318 317 313 310 313 316 318 317 315 315 313 311 309
321 322 322 322 322 322 320 319 318 317 317 320 324 326 326 325 323 321 321 321 321 321 321 320 319 317 315 313 313 312 310 309 308 308 308 308 308 308 307 307 307 308 308 307 307 307 307 306 307 308 311 314 316 317 318 319 320 320 320 321 321 320 320 320 320 319 319 320 319 318 318 318 318 317 315 314 313 313 314 313 312 313 313 313 312
321 322 322 322 322 323 322 321 319 318 316 317 319 322 325 325 324 323 321 321 321 321 321 321 320 319 317 314 313 312 311 310 309 308 308 308 308 308 308 307 307 307 308 308 307 307 306 306 307 310 313 315 316 318 319 320 321 321 321 321 320 320 320 320 321 319 319 319 318 318 318 318 318 318 317 316 314 311 311 311 309 311 313 312 311
323 323 323 323 322 322 322 322 321 320 319 318 316 317 320 323 324 324 322 321 321 321 321 321 321 321 319 316 314 312 311 310 310 309 308 308 308 308 308 308 307 307 308 308 308 307 307 307 308 311 313 315 317 318 320 321 322 321 321 322 320 319 319 320 321 319 318 318 317 317 318 319 319 318 318 317 316 313 312 311 310 311 311 308 308
325 325 325 324 324 323 323 322 322 321 321 321 320 317 316 318 320 322 323 322 321 320 321 321 322 322 321 320 317 314 311 311 310 309 309 309 308 308 308 308 308 308 308 308 308 308 308 308 309 312 314 315 316 318 319 321 322 322 321 322 321 320 320 320 320 319 318 318 317 318 318 319 319 319 319 318 317 316 314 313 312 310 306 303 304
325 325 326 326 326 325 324 323 322 322 321 322 322 321 319 317 316 318 321 323 323 322 322 321 322 322 323 322 321 318 315 313 311 310 310 310 309 309 309 309 308 308 308 308 309 309 309 309 310 312 314 316 317 318 319 320 322 323 322 321 321 320 320 321 320 319 319 318 318 319 318 318 318 319 319 318 318 317 316 314 313 310 305 300 301
324 325 325 326 326 326 326 325 324 322 321 321 322 322 322 321 318 316 316 318 321 323 324 323 323 323 323 323 323 322 320 317 315 313 312 311 310 310 310 310 309 309 309 309 309 309 309 309 310 313 315 317 317 318 319 320 322 323 322 322 322 321 321 321 321 321 320 319 319 319 319 318 318 318 318 318 318 318 317 316 314 312 308 303 299
325 325 325 325 325 326 326 326 325 323 322 321 321 321 322 323 322 320 317 316 316 318 321 323 324 324 324 324 323 323 323 322 320 317 315 313 312 311 311 311 311 310 310 310 309 309 310 310 311 313 314 316 318 318 319 320 321 322 322 323 323 322 321 321 321 321 320 320 319 319 319 318 318 318 318 318 318 318 317 317 316 314 312 308 301
325 326 326 326 325 324 325 326 326 325 324 322 321 321 321 322 322 323 322 320 318 316 316 318 321 323 324 325 325 324 324 323 323 322 320 318 316 314 313 313 313 312 311 311 310 310 310 310 311 313 314 315 317 318 318 319 321 322 323 323 322 323 322 321 321 320 320 320 320 319 319 318 318 318 318 318 318 317 316 316 316 315 314 313 307
324 325 325 325 325 324 323 325 326 326 325 324 323 322 321 321 321 322 323 323 322 321 318 316 316 317 320 322 324 325 325 325 325 325 324 323 321 319 317 316 315 314 312 312 311 311 311 311 312 312 314 315 317 317 318 318 320 322 323 323 322 322 322 322 322 321 320 320 320 320 319 319 318 318 318 318 317 317 316 316 316 315 314 314 313
322 322 323 323 322 322 322 323 325 326 326 326 325 324 323 321 321 321 322 323 323 323 322 319 316 314 315 316 318 321 324 325 326 326 326 325 325 324 322 320 317 315 314 313 312 313 312 312 312 313 313 315 315 316 318 318 319 321 322 322 322 322 322 322 322 321 321 320 321 320 320 320 319 319 318 318 317 317 316 316 315 315 314 314 314
321 320 320 320 320 320 320 320 323 326 326 326 326 325 324 324 323 322 322 322 323 323 323 321 318 316 315 314 314 316 318 321 323 325 326 326 326 326 325 324 321 318 316 314 313 313 313 313 313 313 313 314 315 317 318 318 319 320 322 322 322 322 323 322 322 322 321 321 321 321 321 321 320 320 320 319 318 317 317 317 316 316 315 314 314
319 319 319 319 319 319 319 319 320 324 326 326 326 326 326 325 324 324 323 323 323 323 324 323 321 319 318 316 315 314 314 315 317 320 322 324 325 325 326 326 324 322 319 316 314 314 314 314 314 314 313 314 315 317 319 319 319 320 321 321 322 322 322 322 322 322 322 321 321 321 321 321 321 320 320 320 319 319 318 318 317 316 316 316 315
318 318 318 319 319 320 320 318 319 321 323 325 326 326 326 326 326 325 324 324 324 324 324 323 323 322 321 319 318 317 315 315 315 315 317 319 320 322 323 325 325 325 323 319 318 316 315 315 314 314 314 314 315 316 318 320 320 319 320 320 321 321 321 321 322 322 322 322 321 321 321 321 321 321 321 321 320 320 320 319 318 318 317 317 316
318 318 319 319 319 321 321 319 318 319 321 322 323 324 325 326 326 325 325 325 325 324 324 323 323 323 322 322 321 320 319 318 317 315 315 316 316 317 319 321 323 325 326 324 322 319 316 315 315 315 315 315 315 316 316 318 320 319 319 320 321 321 321 321 322 322 322 322 322 321 321 320 321 321 321 321 321 321 321 321 319 318 318 317 317
320 320 319 319 319 320 322 321 318 318 320 321 322 323 325 325 325 326 326 325 325 325 324 324 323 323 322 322 322 322 321 320 319 319 317 317 316 316 316 317 318 321 323 325 325 323 320 317 315 315 315 315 315 316 316 317 319 320 320 321 321 321 321 321 322 322 322 321 322 321 321 321 320 320 321 322 322 322 321 322 321 319 319 319 318
320 321 321 320 319 319 321 323 322 321 322 323 324 324 325 325 325 325 325 325 324 324 324 324 323 323 322 322 322 322 322 321 321 321 320 319 319 318 317 317 318 318 319 321 323 325 323 320 317 315 315 315 315 316 316 317 318 319 320 320 321 321 321 321 321 321 321 321 321 321 321 320 320 320 321 322 322 322 322 322 322 321 320 320 319
Wind_Speed
14 12 12 10 9 9 8 9 11 10 9 10 10 10 11 10 9 9 7 5 5 5 5 6 5 3 3 5 7 9 9 10 10 10 10 9 9 10 9 9 9 11 12 12 13 13 13 14 14 15 15 15 15 15 15 14 14 16 16 17 17 16 16 16 16 15 15 16 15 15 16 15 15 15 15 15 17 22 22 20 17 15 17 20 19
14 13 12 11 10 9 8 8 11 11 9 10 10 10 10 10 9 8 6 4 3 3 5 6 4 2 3 6 8 10 11 10 10 10 10 10 10 10 10 10 11 12 12 12 13 13 14 14 15 15 15 15 14 15 14 14 14 15 16 17 16 16 16 16 16 15 15 15 15 15 15 15 15 15 15 14 16 20 21 18 15 13 15 18 18
15 14 12 10 10 9 9 8 9 11 10 10 10 10 9 9 8 7 5 3 2 3 5 6 2 3 4 7 10 11 11 10 10 10 10 10 11 11 10 11 12 12 12 13 14 13 14 14 15 15 14 14 14 14 13 13 14 14 15 16 16 16 16 16 15 15 15 14 14 14 14 15 15 15 16 17 19 20 20 17 15 14 14 15 16
14 14 12 10 10 9 9 7 8 9 10 10 10 9 8 8 7 7 4 2 1 4 6 4 3 4 5 7 10 11 10 10 9 10 9 10 11 11 11 11 12 12 13 13 13 13 13 13 14 15 14 13 13 13 13 13 13 14 14 15 15 15 15 15 15 15 15 14 15 14 12 13 13 14 15 15 18 19 19 18 15 14 14 14 15
14 14 13 10 9 9 8 7 7 7 9 9 8 8 7 7 6 5 3 1 3 5 5 1 5 7 7 7 9 11 10 10 10 10 10 10 11 11 12 12 12 12 13 13 13 13 14 14 15 15 14 13 13 13 13 13 13 13 14 14 15 15 15 15 15 15 15 15 16 14 11 12 11 12 12 12 16 17 16 16 15 13 13 13 14
14 14 13 12 9 9 9 7 6 6 7 8 9 8 7 7 7 5 3 3 4 5 3 1 6 7 7 6 7 10 11 10 11 11 11 11 12 12 12 12 12 12 13 12 12 13 14 14 14 14 14 13 14 14 13 13 13 13 14 14 15 15 15 15 15 14 14 14 14 12 11 11 11 11 11 10 13 15 15 14 13 13 13 12 12
14 13 12 12 10 10 9 7 5 4 5 7 9 9 9 9 8 6 3 4 5 4 1 4 6 6 6 7 7 9 11 11 11 11 12 12 12 12 12 12 12 12 12 12 13 14 14 14 14 14 13 13 13 13 13 13 13 13 14 14 15 15 15 15 14 13 14 12 11 11 11 11 12 12 10 10 12 14 14 13 12 12 12 12 12
14 12 12 12 10 10 9 8 5 3 3 5 8 9 10 10 9 7 5 5 5 3 5 6 5 5 6 7 8 9 11 11 11 10 12 12 11 12 11 11 11 11 11 12 13 13 14 13 13 13 13 12 12 12 12 12 12 13 14 14 14 14 14 14 13 13 13 11 10 11 11 11 12 12 11 11 12 13 13 12 12 12 11 12 12
14 12 12 12 10 10 9 8 6 4 4 5 7 8 9 10 9 8 6 6 5 4 8 8 7 6 7 8 8 9 10 11 10 10 10 11 11 11 11 11 11 11 11 12 12 12 13 13 13 12 12 12 11 11 11 11 12 13 14 14 14 14 14 14 14 13 11 9 11 12 12 11 11 11 10 10 13 13 13 12 11 12 11 12 12
14 12 11 10 9 9 8 7 6 4 4 6 7 7 8 9 9 8 8 7 4 6 9 10 8 7 7 7 6 7 9 9 9 9 9 10 11 10 10 10 10 11 11 11 11 11 11 12 12 12 12 11 11 10 10 11 12 13 13 13 13 13 13 13 13 12 9 8 10 12 13 12 10 9 8 9 12 12 13 12 12 12 11 11 11
14 12 11 10 9 7 7 6 5 4 4 6 6 6 7 8 9 10 9 7 5 7 9 9 8 8 8 7 6 6 6 7 8 9 9 10 10 9 10 9 9 10 10 10 10 10 10 11 11 11 11 10 10 10 10 11 11 12 12 12 12 12 13 12 12 11 9 8 9 10 11 12 9 7 7 7 10 11 11 12 11 11 10 10 10
13 13 11 10 9 8 7 6 5 4 4 5 6 6 6 8 10 11 10 7 7 9 10 9 9 9 8 6 6 5 5 6 8 9 9 9 9 9 9 9 9 9 9 9 8 8 8 10 10 10 10 10 9 9 9 10 10 11 11 12 12 12 12 12 11 10 9 8 8 9 10 10 7 6 6 6 8 9 10 10 10 10 9 9 9
13 13 12 11 10 9 8 7 5 4 4 5 5 6 6 8 9 11 11 7 6 8 9 10 11 10 8 7 7 6 5 7 8 8 8 9 9 8 8 8 9 8 7 7 7 7 7 8 9 10 9 9 9 9 9 9 10 11 11 11 12 13 13 12 11 10 8 6 7 7 9 9 5 6 6 7 8 8 9 9 8 9 8 8 8
13 13 13 11 10 10 9 7 6 4 4 5 5 6 6 7 8 11 12 8 7 7 8 10 11 11 10 9 8 8 6 7 8 9 8 8 9 8 8 8 8 7 6 6 5 5 6 7 8 8 8 8 8 8 9 9 10 10 11 12 12 13 12 12 11 9 7 6 6 6 8 7 5 7 6 7 7 7 8 7 7 8 8 8 7
11 12 12 12 11 10 10 9 7 6 4 4 5 5 6 7 8 11 11 9 8 7 8 9 10 11 11 10 9 8 7 8 8 9 8 8 8 7 7 7 7 6 6 5 4 4 5 6 7 7 7 7 8 8 8 9 9 10 11 12 12 12 12 11 10 8 7 6 5 5 6 6 6 7 5 5 6 7 8 7 7 7 7 7 6
11 12 12 12 11 10 11 10 8 7 5 4 4 5 5 6 6 8 9 8 7 6 7 8 8 10 12 11 9 8 7 8 8 9 8 8 8 7 7 7 6 5 5 4 4 4 4 4 5 6 6 6 7 7 8 9 10 11 11 12 12 12 11 10 9 8 6 6 5 5 5 5 6 6 4 4 6 7 7 7 6 6 6 6 5
12 13 13 12 11 11 10 10 10 8 7 5 5 5 5 5 4 4 4 5 3 3 4 6 7 8 11 12 10 8 8 8 8 8 8 8 7 7 6 6 5 4 4 3 3 2 3 3 4 5 5 5 6 6 7 9 9 11 11 11 12 12 12 10 7 7 6 5 5 5 4 4 5 5 4 3 5 7 7 6 5 5 4 4 4
12 13 13 13 12 12 10 10 11 10 8 6 6 5 5 4 3 3 2 2 1 1 2 4 6 6 7 9 10 9 8 8 8 8 8 8 7 7 6 6 5 4 4 3 2 1 1 2 3 4 4 5 5 6 7 8 9 10 10 11 12 12 13 10 7 6 5 4 5 5 4 5 5 4 4 3 4 5 6 5 4 3 2 2 1
13 12 13 13 13 12 11 11 11 11 9 8 7 6 5 4 3 2 2 2 1 1 2 3 5 4 5 6 8 9 9 9 8 8 8 7 8 8 7 7 6 5 4 3 2 1 1 2 3 4 4 5 6 6 7 9 9 10 11 11 12 12 11 9 7 6 4 3 5 4 5 6 5 3 3 3 3 4 5 4 2 2 1 1 1
14 14 13 13 13 13 13 13 13 12 10 9 8 7 6 5 4 3 3 3 1 1 2 3 4 4 4 4 5 8 9 9 8 8 8 8 9 9 9 8 7 5 4 3 2 1 1 1 2 3 4 5 6 7 8 9 9 10 11 11 12 11 8 7 7 6 4 2 4 3 5 6 4 2 4 3 4 5 5 4 2 3 2 1 3
15 15 14 14 14 14 14 14 13 12 12 11 10 9 8 7 6 5 4 4 3 3 3 3 4 4 4 5 5 7 8 9 9 9 9 9 10 10 9 8 7 6 5 4 3 3 3 2 2 2 3 4 5 7 8 9 10 10 10 12 11 8 6 7 6 5 4 2 3 4 6 5 3 2 4 3 4 4 3 4 3 4 3 2 3
15 15 15 15 14 14 14 13 12 12 12 12 12 11 10 9 8 7 6 5 5 4 4 4 5 5 5 6 6 7 8 9 9 9 10 10 10 10 9 9 8 8 6 6 5 5 5 4 4 3 3 4 5 6 8 9 10 11 11 11 9 5 5 7 6 5 4 3 3 5 7 5 4 2 2 3 2 3 3 5 4 5 4 3 3
15 16 16 16 15 15 14 13 12 11 11 12 12 12 12 11 10 9 9 8 7 6 5 5 5 5 6 7 7 8 8 9 9 8 9 9 9 9 9 9 10 9 8 8 7 7 6 6 5 4 4 4 5 6 8 9 10 10 9 8 5 5 6 5 5 5 3 3 4 7 8 6 4 1 1 2 1 2 4 6 6 5 4 4 3
15 16 16 17 17 16 15 13 11 10 10 11 11 12 13 13 12 11 10 10 10 8 8 7 6 5 6 7 8 9 8 8 8 8 8 8 9 9 9 10 11 10 10 9 9 8 8 7 6 5 4 5 5 6 8 9 8 6 5 3 3 6 6 4 4 4 3 3 5 8 8 6 4 1 0 1 1 2 5 8 9 7 5 4 2
16 15 15 17 18 17 16 14 13 11 11 10 11 12 13 13 13 12 12 12 11 11 10 9 8 7 7 7 9 9 9 8 8 8 8 8 9 10 10 11 11 12 11 11 10 10 9 8 7 6 5 6 6 6 8 7 5 3 3 3 4 5 4 3 4 4 3 1 5 8 8 7 5 2 1 0 2 3 5 6 7 7 5 3 1
17 17 17 18 18 18 18 17 15 14 13 12 11 11 13 14 14 13 13 13 12 12 11 10 9 8 7 7 8 9 10 9 8 8 8 9 9 10 11 12 13 13 13 12 11 11 10 9 8 7 7 7 7 7 8 8 6 3 3 5 4 3 3 3 3 3 2 1 4 8 9 8 7 4 3 1 3 4 5 5 4 5 4 3 1
16 17 18 17 18 19 19 19 18 17 15 14 13 13 13 14 15 14 14 14 13 13 13 12 11 9 8 8 8 9 10 11 10 10 10 10 10 11 12 13 14 14 14 13 12 12 11 10 9 8 8 8 8 8 9 9 8 6 4 5 5 4 3 3 2 3 2 1 2 7 9 9 8 6 5 3 3 2 5 5 4 3 3 3 2
15 16 16 17 18 18 19 20 19 19 18 16 16 15 14 15 15 15 15 15 15 15 14 13 13 12 10 9 9 9 10 11 11 11 11 11 12 12 13 14 14 15 14 14 13 12 11 11 10 10 9 9 9 9 10 10 8 6 5 5 5 5 4 3 2 4 3 1 2 5 8 10 10 9 8 5 2 3 6 6 5 4 3 3 3
15 15 15 16 16 17 19 20 20 20 20 19 19 17 16 16 16 16 16 16 16 16 16 15 15 14 13 12 11 10 10 11 11 12 13 13 14 14 14 14 15 15 15 14 13 13 12 12 12 11 10 10 10 10 10 9 6 6 6 5 6 6 6 4 3 4 4 2 2 4 7 9 11 11 10 8 5 6 7 7 6 6 5 4 4
15 14 14 15 15 17 19 20 21 21 21 21 21 20 18 18 17 17 17 17 17 17 17 17 16 16 15 13 12 11 11 11 12 13 14 15 16 16 15 15 15 15 15 14 14 14 13 13 13 12 11 11 10 11 10 7 6 6 6 7 7 6 6 6 5 4 3 3 2 3 6 7 9 11 12 11 7 7 9 7 6 8 6 4 5
15 15 14 14 15 16 18 20 21 21 22 23 23 22 21 20 18 17 18 18 18 18 18 18 18 17 16 14 13 13 13 13 13 14 15 15 16 17 17 16 15 15 15 16 15 15 15 15 14 13 12 12 11 12 11 9 8 6 7 10 9 6 6 7 8 6 3 3 2 2 4 6 8 9 11 11 9 10 10 9 10 10 6 4 6
15 14 14 15 15 15 16 18 20 22 23 24 25 24 23 22 20 19 20 19 19 19 20 19 18 18 17 16 15 15 15 15 15 16 16 16 17 17 17 17 16 16 17 17 17 17 16 16 15 14 13 13 12 13 12 11 9 5 6 10 9 7 6 7 9 9 6 4 4 3 3 5 7 8 10 11 12 12 11 11 11 10 7 6 6
16 16 16 16 16 16 16 17 19 22 23 24 26 26 25 24 22 21 21 20 20 21 21 20 19 18 18 18 18 18 18 17 17 17 17 17 18 18 17 17 17 18 18 19 19 18 18 17 16 15 14 13 13 13 13 12 10 7 8 9 7 7 6 6 7 9 10 8 6 5 5 5 6 6 8 11 14 13 13 13 11 10 8 5 4
18 18 17 17 17 17 17 18 19 20 22 24 26 27 27 25 24 23 22 22 22 22 22 21 21 20 20 21 21 21 20 19 19 18 18 18 19 18 17 18 18 18 20 20 20 20 19 18 18 17 15 14 13 13 12 11 9 8 8 8 7 7 7 7 7 8 11 10 8 7 7 7 7 6 7 11 14 15 16 16 12 10 8 6 5
20 19 18 18 18 18 18 19 19 19 20 22 24 26 26 26 26 25 24 24 23 23 22 22 22 22 22 22 23 23 22 21 20 20 20 20 19 19 18 18 18 19 20 21 21 21 20 19 19 18 17 16 14 14 13 11 9 9 9 8 8 8 7 8 8 9 10 11 11 9 7 8 8 9 8 10 12 16 18 18 15 12 11 9 10
21 21 20 20 20 20 20 20 20 20 20 21 22 24 26 27 28 28 27 26 25 24 23 22 22 23 23 23 23 23 23 22 21 22 22 21 20 20 20 19 19 19 21 22 22 23 21 20 20 19 18 17 15 14 13 12 10 9 9 9 9 9 9 8 9 10 11 12 13 10 8 8 9 8 9 9 11 16 18 19 18 17 16 14 13
23 23 23 23 23 22 22 22 21 21 21 22 22 23 24 26 27 28 29 28 28 26 25 24 23 23 24 24 24 23 23 23 23 23 23 22 21 21 21 21 20 20 22 22 23 23 22 21 21 21 20 18 16 15 13 12 10 10 10 10 10 10 10 9 9 11 13 13 14 13 10 9 9 9 8 9 11 15 16 17 18 18 17 17 16
22 22 23 24 24 24 25 24 24 23 23 23 22 23 23 25 27 29 30 30 30 29 28 27 26 25 25 25 24 23 23 24 24 25 24 23 23 23 23 22 22 22 23 23 23 24 23 23 23 22 21 19 18 16 14 12 11 13 12 11 12 12 11 10 10 12 15 16 14 12 12 11 12 13 11 10 11 13 15 15 15 17 18 18 18
19 20 20 22 23 24 26 26 26 27 26 25 24 24 25 26 28 29 31 32 32 32 31 30 29 28 27 26 25 24 25 25 25 26 25 24 24 24 24 24 24 24 24 24 24 25 25 25 24 22 22 20 19 17 15 13 13 14 14 13 14 14 13 12 12 14 16 17 15 13 13 13 13 15 15 13 13 13 14 14 14 15 18 19 19
22 21 20 21 22 23 26 28 28 29 29 29 28 27 27 28 29 30 32 33 33 33 33 33 32 31 30 28 27 27 27 27 27 27 26 26 26 26 25 25 24 25 25 25 24 25 26 25 24 23 22 21 20 19 17 16 14 14 15 16 16 16 15 15 15 16 17 18 16 15 15 15 15 15 16 16 16 15 14 14 14 15 17 19 19
29 26 24 22 22 23 25 28 29 30 31 31 31 31 30 29 30 31 31 32 33 34 35 35 35 34 33 31 30 29 29 30 29 28 28 28 27 27 27 26 25 26 26 25 25 25 26 25 24 24 23 23 22 21 20 19 17 15 14 15 16 16 17 17 17 17 18 18 17 17 17 16 16 16 16 17 18 17 16 15 16 17 17 18 19
32 30 28 25 23 24 25 27 28 31 32 32 33 33 32 31 30 30 30 31 32 33 34 35 35 35 35 34 33 33 33 33 32 30 29 29 29 29 29 27 26 26 27 26 26 26 26 26 26 26 25 25 24 23 22 21 21 18 14 13 13 15 17 18 18 19 19 18 17 18 19 17 16 17 17 18 19 19 18 18 19 19 18 18 19
33 32 32 30 28 27 27 26 28 31 32 32 33 34 34 33 31 31 31 31 32 32 32 33 34 35 36 36 36 36 36 36 35 33 32 32 31 31 30 29 28 28 28 27 27 27 27 27 28 28 27 27 26 25 24 23 21 17 15 15 14 13 15 16 17 17 15 15 16 16 18 18 17 18 18 19 20 20 20 20 21 21 20 19 19
35 35 36 36 35 32 29 27 27 30 31 32 32 32 33 33 33 33 33 34 34 33 34 33 34 35 36 37 37 37 37 37 37 36 36 36 34 33 32 31 30 30 29 28 29 28 28 28 29 29 29 29 29 27 26 25 23 19 15 15 14 12 13 12 11 13 13 14 16 15 15 16 16 17 18 18 19 20 21 22 22 22 22 22 20
41 41 41 40 40 38 34 30 28 29 29 30 30 31 33 34 34 35 36 37 37 37 37 35 35 36 35 36 36 37 38 38 38 39 39 38 37 37 35 34 33 32 31 31 30 30 29 29 29 29 30 30 29 27 28 27 25 24 21 15 11 11 12 11 9 12 15 17 16 15 15 15 15 16 16 16 17 18 20 21 22 23 23 22 21
40 39 39 38 38 39 38 34 31 30 30 29 29 30 32 34 34 36 38 38 39 39 38 36 35 36 35 34 34 35 36 37 38 39 39 38 39 38 38 37 35 34 34 33 33 32 31 31 30 30 30 30 30 29 31 30 26 28 28 24 19 15 14 12 10 11 15 18 19 19 19 18 17 17 17 17 17 18 19 19 20 22 22 21 21
36 34 34 33 32 34 36 37 34 33 32 31 30 31 32 34 35 37 38 39 39 38 37 36 36 36 36 35 35 35 34 35 36 37 38 38 38 38 39 38 37 37 36 35 36 35 33 32 31 31 31 30 31 32 33 32 30 30 31 29 27 25 22 19 17 15 16 19 21 22 21 20 20 21 21 21 20 19 19 19 20 21 21 21 21
34 34 33 32 31 30 32 36 36 35 35 34 33 33 34 35 36 37 39 40 41 39 38 37 37 38 38 36 36 36 35 35 35 35 37 37 38 38 38 38 39 39 38 38 38 37 35 34 33 32 32 32 33 33 33 33 34 33 31 31 31 31 30 30 28 24 22 22 22 25 26 25 25 26 26 25 23 22 22 21 19 20 20 21 22
31 30 30 30 29 28 29 33 37 37 37 36 35 35 36 36 37 38 40 41 41 40 40 40 39 39 39 38 38 38 37 36 35 35 36 36 37 38 37 38 38 39 39 40 40 39 37 36 35 34 33 34 34 34 34 35 37 36 34 33 32 32 33 33 32 31 30 28 27 29 30 29 29 29 27 26 26 25 26 24 21 20 20 21 22
23 25 26 28 28 28 28 30 35 37 37 36 35 36 37 37 38 40 41 42 41 41 41 41 41 40 39 39 39 39 38 37 36 36 37 37 37 38 37 37 38 38 38 39 40 40 39 38 37 36 35 35 36 36 36 35 37 38 37 35 33 33 35 34 32 33 34 33 32 32 32 32 32 30 27 27 26 26 28 28 26 24 23 22 22
20 21 22 24 26 27 28 28 30 32 33 33 33 34 35 37 38 39 41 41 41 42 42 42 41 40 39 38 38 39 38 37 36 37 37 37 38 38 38 37 37 38 38 38 39 40 40 40 39 38 37 37 38 38 37 37 38 40 40 38 35 32 34 37 36 35 37 36 33 33 34 34 35 33 30 29 28 29 30 30 29 28 27 27 25
Wind_Direction
160 157 145 146 146 136 135 134 129 128 127 127 133 134 131 130 131 130 128 124 108 70 36 16 12 37 74 92 101 100 100 102 103 103 102 103 108 118 118 108 101 92 87 86 87 86 86 84 82 83 84 85 86 86 84 80 77 75 75 73 71 67 65 63 64 68 65 64 67 70 74 75 73 71 68 64 66 64 64 64 59 57 57 56 57
163 157 147 148 148 141 137 138 135 133 134 132 135 138 137 137 138 136 140 137 103 43 16 359 3 71 95 100 103 100 98 98 103 106 105 106 109 113 110 101 98 93 90 90 88 87 87 86 83 85 86 86 86 85 84 81 78 75 72 71 69 66 64 62 61 62 62 61 62 64 68 71 68 67 71 69 69 70 69 69 65 59 54 53 53
165 154 149 153 149 145 139 137 141 143 143 137 137 142 143 146 150 150 155 142 89 2 345 341 22 95 106 106 105 105 105 109 110 110 109 108 110 111 104 97 98 95 93 91 90 89 89 86 84 88 87 86 85 83 84 81 78 73 69 68 64 63 61 60 60 60 60 59 60 60 59 64 63 63 72 72 71 74 73 72 69 62 57 55 51
167 155 152 155 150 147 141 136 142 151 154 148 145 147 151 161 167 164 163 144 307 323 326 334 76 100 96 104 110 113 114 119 118 114 113 111 112 109 102 96 95 94 92 91 91 91 90 88 87 88 87 85 83 81 80 76 74 70 68 65 61 60 59 58 57 58 59 58 65 68 62 61 58 56 65 73 73 73 71 70 67 62 59 57 53
167 160 154 153 154 149 145 141 139 154 166 168 164 161 164 179 189 183 178 214 279 310 315 351 107 108 94 96 112 117 117 120 120 117 115 111 111 107 101 97 94 94 94 93 94 95 93 91 89 87 86 84 80 78 75 74 73 71 68 64 61 58 56 55 55 57 59 58 66 72 70 66 62 56 60 68 72 71 66 65 63 61 61 59 55
168 163 156 153 156 156 153 149 142 149 172 185 189 188 191 206 217 214 213 253 283 300 290 131 113 106 96 102 111 118 117 117 117 115 116 111 109 107 104 100 99 98 96 98 98 95 93 91 89 88 85 83 80 78 75 73 72 70 67 63 59 56 54 53 54 55 55 57 61 67 69 68 66 59 64 66 70 76 68 61 61 59 60 59 57
168 164 158 156 158 164 160 158 152 145 172 193 200 204 212 227 235 240 244 260 279 276 202 121 117 100 97 112 112 119 121 118 116 116 117 114 111 110 108 105 102 100 98 99 96 92 91 90 89 88 85 82 79 77 75 72 70 68 65 62 58 55 53 52 53 52 54 61 63 65 67 63 60 54 61 69 68 76 71 64 63 60 59 59 60
171 167 162 161 165 169 163 166 165 151 174 194 204 211 220 233 242 252 257 260 268 222 143 130 133 109 108 122 114 117 123 121 119 120 119 118 117 113 112 109 106 103 99 95 91 90 91 91 89 88 86 82 78 76 75 72 70 67 63 59 56 53 51 50 48 48 55 66 65 64 65 57 57 51 53 68 68 70 68 64 63 61 60 59 61
172 170 165 166 172 171 166 172 175 168 173 189 201 213 224 233 240 247 251 253 244 169 148 150 151 128 121 129 120 118 123 123 122 125 123 123 121 118 117 113 110 104 98 92 89 89 91 93 91 89 87 82 78 75 74 72 68 63 59 55 52 49 47 46 44 47 56 63 63 68 72 62 59 54 49 63 65 65 66 62 60 59 59 58 59
172 171 169 173 177 173 173 176 185 184 178 183 193 210 224 230 232 233 235 236 213 164 161 163 163 151 137 138 135 128 126 124 126 128 124 125 125 121 118 112 107 102 98 94 90 89 91 94 92 91 87 82 78 74 70 67 64 60 56 52 48 46 44 44 43 46 55 61 66 67 71 67 61 55 43 52 57 57 60 60 58 57 56 56 58
173 172 170 178 183 180 181 183 192 192 185 184 185 199 218 227 223 220 222 219 196 169 173 170 157 145 135 144 148 140 136 134 135 134 129 131 129 121 116 111 106 101 98 95 93 95 96 95 91 88 82 77 73 68 65 62 60 58 54 50 46 44 42 43 42 43 48 57 67 64 63 60 57 52 37 43 54 52 54 57 57 57 57 59 60
175 174 174 180 188 188 188 194 196 193 194 187 181 185 205 219 214 209 207 201 185 171 173 165 144 135 132 147 155 148 145 144 142 140 137 134 128 123 120 112 106 102 100 100 98 99 95 92 88 82 75 70 65 61 59 57 56 53 50 47 43 42 40 40 40 40 43 54 64 68 68 59 50 45 42 49 57 57 56 57 59 60 62 62 63
179 177 178 181 190 193 193 201 201 201 195 189 185 181 192 205 199 190 189 181 171 167 161 151 140 138 141 154 163 160 150 147 145 146 144 135 132 129 123 113 110 108 106 104 100 96 89 85 82 77 72 65 59 55 51 48 47 44 42 41 39 38 36 36 35 38 41 53 60 65 67 56 44 39 54 63 54 60 62 61 64 65 65 63 63
184 181 180 181 190 194 196 202 206 212 194 188 190 181 183 196 192 180 182 177 168 166 152 149 148 148 156 165 171 171 159 152 149 149 150 142 141 136 127 121 120 119 113 108 99 90 80 76 74 73 68 62 55 49 44 41 38 36 35 34 35 33 33 33 31 39 41 50 64 69 65 52 41 36 54 70 58 65 67 63 65 67 68 65 66
187 186 186 183 189 195 199 201 207 215 201 194 197 192 182 188 192 181 184 181 171 172 162 158 160 161 166 170 176 180 172 162 156 154 153 147 147 143 141 138 132 127 120 112 99 82 69 65 67 66 61 56 49 42 37 33 31 30 29 28 30 30 32 32 29 38 42 50 63 74 68 56 51 40 44 75 74 78 72 66 65 67 71 71 76
189 189 192 190 191 197 201 202 208 214 209 203 207 214 197 188 194 192 192 186 178 177 174 173 172 169 172 175 175 179 178 165 161 162 160 157 154 151 152 150 143 135 127 112 94 76 63 57 57 59 53 47 41 35 29 25 25 23 23 23 23 24 25 29 31 33 42 55 69 83 70 55 54 46 43 71 80 85 77 70 68 70 73 77 90
196 190 192 196 195 199 205 206 210 217 215 209 207 219 219 203 204 213 205 182 186 189 183 190 189 179 178 182 178 175 174 164 165 172 171 168 166 164 162 160 158 147 135 116 102 80 59 48 40 43 42 38 33 27 21 18 19 17 17 16 16 17 16 23 31 28 37 60 86 95 77 62 58 50 36 43 76 90 87 76 71 71 79 92 99
207 198 191 195 197 200 208 211 214 218 219 218 209 212 224 224 216 236 232 163 168 227 223 211 200 189 183 184 182 178 170 168 176 178 178 176 177 181 178 175 174 170 161 143 135 100 49 26 20 20 20 19 18 16 15 13 12 11 10 10 11 11 13 22 27 24 34 66 105 105 89 73 57 50 22 29 83 97 93 79 74 81 92 121 91
213 209 196 196 199 201 206 215 221 217 213 214 210 208 214 225 219 231 248 207 173 227 250 233 209 193 183 183 185 182 177 180 185 184 186 187 187 190 188 187 189 192 187 171 166 150 10 2 1 356 356 357 360 4 6 6 6 4 4 6 5 7 14 21 20 20 24 72 120 114 97 66 38 41 16 33 92 84 87 82 79 125 146 221 293
215 213 205 200 200 203 204 210 222 223 215 207 207 213 208 209 213 214 232 233 227 242 256 248 227 214 202 198 193 187 186 188 191 191 192 192 193 194 194 194 197 208 211 202 201 220 261 306 319 326 334 339 347 354 357 358 358 357 360 1 360 7 15 13 13 18 15 81 127 126 110 71 24 25 3 16 94 82 90 100 120 190 209 269 300
214 215 212 207 203 206 206 205 213 223 224 213 207 213 211 204 204 207 213 224 227 227 238 242 237 234 227 223 219 203 195 192 193 195 192 192 194 197 201 197 202 216 222 223 222 226 231 243 260 285 308 325 340 345 349 351 350 351 354 355 360 10 9 5 13 14 13 72 117 141 127 83 42 44 5 8 99 109 122 129 157 203 223 287 312
213 213 214 214 210 209 209 207 208 215 224 222 213 210 212 210 207 206 205 212 220 222 224 234 244 246 243 240 237 224 212 203 198 196 194 196 198 203 206 201 208 219 222 226 227 229 230 236 248 266 292 313 330 336 342 345 344 346 349 353 2 9 358 5 13 8 19 73 104 142 135 88 64 62 11 1 83 141 166 167 191 212 226 278 315
216 217 217 217 216 215 215 213 211 213 221 227 223 215 211 212 213 210 205 206 210 217 222 227 241 250 253 249 246 240 229 217 208 203 201 203 206 211 212 208 214 222 225 226 229 234 235 239 248 261 282 304 321 330 334 338 340 342 347 354 0 358 357 5 11 7 25 94 116 137 132 103 84 71 20 2 73 171 202 203 223 238 245 281 309
226 223 221 221 220 221 223 223 221 219 222 229 233 228 219 214 215 214 211 210 207 209 215 220 228 235 245 247 248 248 244 235 225 219 215 214 215 218 219 216 219 224 229 230 232 235 237 241 249 260 275 293 308 318 325 332 336 339 344 350 349 349 353 359 7 9 20 97 131 141 134 121 109 109 110 337 283 252 234 224 236 251 262 277 285
237 229 227 228 227 227 229 233 234 230 229 231 234 236 233 226 219 216 215 215 212 208 209 213 219 223 229 238 243 246 246 244 237 232 229 225 223 223 224 222 223 227 230 232 233 236 238 243 250 262 271 283 295 304 316 325 330 330 328 334 342 343 348 351 1 12 7 67 148 153 151 143 130 160 181 184 291 273 249 241 243 246 252 252 220
241 237 236 234 232 232 232 234 237 235 233 233 234 235 235 235 229 221 217 217 217 215 212 211 214 220 224 231 237 240 242 241 239 238 237 234 231 230 229 227 226 228 230 232 234 238 241 245 253 262 270 280 290 299 311 321 324 320 315 326 336 333 341 341 353 14 3 337 172 170 171 163 147 169 195 229 294 270 257 273 263 242 238 230 207
247 244 241 239 237 236 236 234 234 236 236 235 236 235 232 235 235 228 221 217 217 218 219 217 215 217 221 226 231 236 239 240 240 240 241 240 238 236 234 231 230 229 230 232 234 239 244 250 256 263 272 279 287 297 307 315 319 318 311 318 326 320 325 332 341 7 356 314 209 188 189 184 171 178 198 225 292 260 252 283 286 246 225 217 215
252 247 242 242 240 238 240 237 234 234 236 238 238 237 234 233 235 233 226 220 217 217 219 221 220 217 217 220 223 229 235 238 240 240 241 242 240 238 237 235 234 233 233 234 237 241 246 253 258 264 272 278 285 293 301 308 313 311 305 307 316 311 314 322 318 346 356 316 252 211 205 201 195 194 196 207 227 208 233 267 275 257 233 218 222
253 252 246 243 241 238 240 241 237 234 233 236 237 237 237 234 233 233 231 227 221 218 218 221 223 221 220 219 220 225 230 235 238 240 241 241 241 240 239 237 237 238 238 239 240 243 247 253 258 263 268 274 279 285 292 300 299 295 295 293 303 307 313 317 300 330 347 303 275 235 225 217 213 209 205 208 199 200 231 250 260 272 264 226 222
257 259 255 250 244 239 238 239 239 236 234 235 235 235 238 237 235 234 234 233 229 224 221 222 223 223 223 223 223 227 230 234 236 239 241 242 243 243 242 240 239 241 243 243 243 244 246 250 255 259 263 269 271 279 287 290 288 287 284 288 295 298 302 302 299 321 328 296 293 248 242 235 230 221 216 216 197 199 222 228 250 279 283 237 221
258 261 262 259 252 246 242 239 238 238 237 237 236 234 236 237 237 237 236 235 235 231 228 226 225 225 226 226 227 229 232 235 236 238 241 242 244 245 245 244 243 243 244 246 246 246 247 249 253 256 259 264 268 277 286 287 288 283 280 292 293 282 284 292 301 313 305 282 296 275 257 250 244 229 220 216 198 200 217 230 252 269 280 260 232
262 264 267 267 263 258 251 245 241 239 238 239 239 238 237 236 235 237 237 235 236 236 234 231 230 230 230 230 230 231 233 235 237 239 241 243 245 247 248 249 246 245 245 246 247 247 249 250 253 255 259 263 267 276 284 287 287 272 276 289 284 274 275 279 290 298 292 280 289 301 279 259 250 233 220 210 197 204 222 236 251 265 280 267 237
265 266 266 266 266 263 258 251 245 243 240 240 241 241 241 240 237 237 236 234 234 235 236 235 234 234 233 232 231 231 232 234 237 239 241 243 245 247 249 251 249 248 246 246 247 248 249 251 253 255 258 262 267 275 281 284 282 270 274 277 270 272 273 266 269 278 285 286 287 295 292 286 267 238 218 206 202 209 222 230 247 270 273 254 233
264 264 265 265 264 263 261 256 250 247 245 242 242 243 243 244 243 241 238 237 235 236 237 237 236 234 233 232 231 232 233 234 237 239 241 243 245 247 248 250 251 250 248 247 248 248 250 251 252 254 257 260 264 271 274 277 276 270 274 273 266 267 268 270 263 266 279 284 285 284 284 291 289 263 223 205 208 216 225 232 247 260 250 244 252
262 264 268 269 267 265 262 260 256 254 251 247 245 244 245 244 244 244 242 241 241 240 240 241 241 239 237 235 234 235 236 236 239 240 242 243 246 248 248 249 250 250 249 248 248 248 249 250 252 252 255 257 261 267 269 270 269 266 269 267 265 265 266 270 263 267 274 276 282 281 274 280 289 278 242 211 213 224 233 241 250 253 253 262 264
264 265 267 269 268 266 263 260 257 255 253 252 249 247 246 245 244 244 244 244 244 244 243 244 246 246 245 242 240 239 239 239 240 242 244 244 245 248 249 249 249 249 249 248 247 248 248 248 250 251 252 255 258 263 263 264 265 265 265 260 263 267 267 267 264 270 270 268 275 274 271 280 293 285 252 227 220 227 238 247 253 257 261 266 267
267 266 265 265 266 265 263 260 258 256 255 255 254 252 250 249 247 246 245 245 245 246 246 246 247 248 249 248 246 244 243 242 242 243 244 245 245 246 248 248 247 248 248 247 246 247 247 246 248 249 250 252 256 257 256 259 260 259 259 260 264 268 268 264 260 268 269 268 272 268 264 274 287 288 267 248 239 235 239 247 253 257 260 262 265
268 267 265 263 262 261 260 258 257 256 255 254 255 255 254 253 251 250 248 246 246 247 247 247 247 247 249 249 249 249 246 244 245 245 245 245 245 244 245 246 244 245 246 246 247 247 246 245 246 248 250 251 252 253 252 253 256 257 260 263 265 268 270 266 262 267 270 272 276 268 260 263 270 277 277 270 262 252 246 248 252 255 257 258 260
268 270 268 264 260 258 255 253 252 252 251 251 251 251 251 252 252 252 251 249 248 246 246 247 248 248 248 249 250 250 248 247 246 247 247 246 246 246 245 244 243 244 246 246 247 248 248 246 246 248 249 250 251 250 250 250 252 258 263 265 268 270 272 270 267 268 268 270 275 271 263 259 257 264 272 275 275 269 257 254 255 256 256 255 256
272 272 269 265 263 260 256 251 248 249 250 248 247 246 246 247 249 250 252 253 252 250 249 249 249 249 248 248 248 249 250 249 247 247 248 247 247 248 247 246 244 243 245 247 248 250 250 249 248 248 249 250 250 248 247 249 252 258 263 265 268 272 272 271 271 269 266 266 268 269 267 260 253 255 264 269 273 274 269 263 260 258 258 256 254
271 269 266 265 265 264 260 255 250 249 249 248 248 248 247 246 247 249 252 254 254 254 253 252 252 251 250 249 248 248 249 249 248 247 248 248 247 249 249 248 246 245 246 248 249 250 251 249 247 246 247 247 248 246 244 246 249 254 260 266 272 274 272 270 269 267 268 269 266 265 268 266 258 254 258 265 269 271 273 272 266 259 259 260 255
268 265 264 265 267 265 260 257 255 251 249 248 249 250 251 250 251 253 254 255 255 255 255 255 255 254 254 252 250 248 248 249 249 248 249 249 249 250 251 250 249 248 248 248 249 249 249 248 245 245 244 244 245 244 243 243 245 251 257 263 274 277 274 274 272 268 270 272 268 263 266 269 264 259 258 262 266 269 271 272 270 263 260 263 259
267 265 263 265 267 267 263 258 256 253 250 249 250 251 254 255 256 257 258 258 258 257 256 256 255 255 254 253 251 250 249 249 250 250 250 251 251 251 252 252 252 251 251 249 248 248 248 247 245 245 245 244 243 242 244 243 243 248 253 253 259 270 275 278 277 273 271 270 269 265 265 268 267 264 261 260 262 264 267 269 270 268 265 265 264
267 265 264 265 268 269 267 262 256 254 252 251 251 253 255 256 257 257 257 258 258 258 256 254 252 252 252 251 251 250 250 250 251 251 251 251 252 252 252 253 253 252 252 251 249 249 249 248 247 246 244 244 244 244 245 245 241 239 241 248 252 256 263 267 268 271 274 273 272 268 265 267 268 267 264 263 264 263 263 264 267 269 268 265 264
268 266 266 268 269 269 268 265 258 254 252 251 251 252 253 254 255 255 254 254 254 254 253 252 249 249 250 251 251 251 251 251 251 251 252 252 252 252 252 252 251 251 251 251 250 250 249 248 248 247 246 245 247 248 248 246 243 240 240 240 239 243 254 264 261 265 277 279 272 268 267 268 271 271 269 271 274 273 269 266 266 268 269 266 262
270 270 271 272 271 269 266 264 259 254 252 251 251 252 253 253 254 254 254 254 254 254 255 255 254 253 254 254 253 253 252 252 252 253 253 253 252 252 252 251 251 251 251 251 251 250 249 248 248 248 248 246 246 247 249 249 246 244 245 244 242 245 256 263 257 263 281 283 276 272 272 272 273 274 272 275 280 283 281 274 270 268 269 270 265
273 274 275 274 272 268 262 258 257 254 253 253 252 253 253 254 254 254 255 256 257 259 261 262 260 258 258 257 256 256 255 255 254 254 254 254 254 253 252 251 250 250 251 250 251 251 251 250 249 248 249 248 245 244 247 250 250 247 247 249 250 252 256 255 251 261 275 278 278 276 273 271 273 273 273 275 278 284 287 282 275 271 270 270 268
276 275 273 270 270 269 262 254 253 253 253 254 255 254 254 254 254 254 255 256 257 261 263 263 261 259 258 258 257 257 256 255 254 253 253 254 254 253 252 252 251 250 250 250 251 252 251 251 250 248 248 247 245 245 246 248 252 253 253 253 253 255 259 260 259 261 262 265 272 272 268 268 270 271 271 271 271 277 283 283 277 274 271 268 267
274 273 270 267 265 266 262 253 249 250 252 254 256 256 256 255 255 254 254 255 256 258 260 260 260 259 258 258 257 257 256 256 255 253 253 252 252 253 252 252 252 251 250 251 251 252 252 252 250 249 248 247 247 247 247 247 250 255 257 256 257 258 259 261 261 258 256 258 262 266 268 267 266 269 271 270 269 272 275 276 274 270 269 267 265
275 273 269 263 260 262 261 253 248 249 252 254 255 256 256 255 255 254 253 254 254 254 255 257 258 259 259 257 256 257 257 257 256 255 253 252 251 252 251 251 252 252 252 251 252 252 253 252 252 251 249 249 249 249 249 249 249 253 256 256 258 260 259 258 257 256 258 257 257 261 265 264 266 272 274 271 269 271 271 270 268 266 264 264 264
284 280 273 266 261 260 259 254 250 250 253 253 254 254 254 254 253 253 253 253 253 252 252 253 254 257 258 257 256 257 257 258 259 258 257 254 253 253 253 252 252 253 253 252 252 252 253 253 253 252 251 249 249 250 251 252 250 251 254 255 255 258 261 261 260 261 262 260 256 259 262 264 270 273 272 271 268 267 267 267 266 265 264 263 262